Find Starlink 30290

NORAD ID: 57858 Int'l Des: 2023-141 Owner: SPXS Country: US Constellation: starlink operational
LEOCIRCULAR

Live Position

Loading 3D Globe...

About Starlink 30290

Description loading...

Upcoming Passes

Passes for default location (London). Set your location on the main map for personalized predictions.

Altitude History

Loading altitude history...

Two-Line Element Set

1 57858U 23141U 26125.40199681 -.00000424 00000-0 -21878-5 0 9991
2 57858 53.1607 20.5068 0000967 114.8087 245.3014 15.30194770149010
Epoch: May 5, 2026 • Age: 13 hours

Current Status

Altitude 475.9 km
Velocity 7.63 km/s
Sub-Earth Point 22.84°N, 162.17°W
Launch Date Sep 12, 2023
Age 2.6 years
Type internet

Technical Details

Classification Payload
Mass 730.00 kg
Dry Mass 700.00 kg
Total Mass 730.00 kg
Length 0.30 m
Diameter 4.10 m
Span 29.00 m
Shape Box + pan
Manufacturer SPXS
Bus Type Starlink V2M
Phase Status In Orbit
Owner/State SPXS/US

Most Searched